Time,TemperatureF,DewpointF,PressureIn,WindDirection,WindDirectionDegrees,WindSpeedMPH,WindSpeedGustMPH,Humidity,HourlyPrecipIn,Conditions,Clouds,dailyrainin,SoftwareType,DateUTC
2011-08-23 00:05:00,75.0,49.7,30.04,East,90,0.0,0.0,41,0.00,,,0.00,open2300-1.11,2011-08-23 06:05:00,
2011-08-23 00:15:00,74.8,50.2,30.04,ENE,67,0.0,2.2,42,0.00,,,0.00,open2300-1.11,2011-08-23 06:15:00,
2011-08-23 00:25:00,74.5,50.4,30.04,ENE,67,0.0,1.8,43,0.00,,,0.00,open2300-1.11,2011-08-23 06:25:00,
2011-08-23 00:35:00,74.1,50.1,30.04,East,90,0.0,7.4,43,0.00,,,0.00,open2300-1.11,2011-08-23 06:35:00,
2011-08-23 00:45:00,73.9,50.5,30.04,ESE,112,0.0,2.5,44,0.00,,,0.00,open2300-1.11,2011-08-23 06:45:00,
2011-08-23 00:55:00,73.8,50.4,30.04,SSE,157,0.0,2.9,44,0.00,,,0.00,open2300-1.11,2011-08-23 06:55:00,
2011-08-23 01:10:00,73.6,50.2,30.04,ESE,112,0.0,4.0,44,0.00,,,0.00,open2300-1.11,2011-08-23 07:10:00,
2011-08-23 01:25:00,72.7,50.0,30.04,SE,135,0.0,3.8,45,0.00,,,0.00,open2300-1.11,2011-08-23 07:25:00,
2011-08-23 01:35:00,72.5,49.8,30.04,East,90,0.0,0.0,45,0.00,,,0.00,open2300-1.11,2011-08-23 07:35:00,
2011-08-23 01:45:00,72.3,49.7,30.03,ESE,112,0.0,0.0,45,0.00,,,0.00,open2300-1.11,2011-08-23 07:45:00,
2011-08-23 01:55:00,71.8,49.8,30.03,ENE,67,6.0,6.0,46,0.00,,,0.00,open2300-1.11,2011-08-23 07:55:00,
2011-08-23 02:05:00,71.4,49.4,30.03,SE,135,0.0,6.0,46,0.00,,,0.00,open2300-1.11,2011-08-23 08:05:00,
2011-08-23 02:15:00,71.4,50.0,30.03,NE,45,2.5,2.5,47,0.00,,,0.00,open2300-1.11,2011-08-23 08:15:00,
2011-08-23 02:25:00,71.2,49.9,30.03,East,90,3.1,3.1,47,0.00,,,0.00,open2300-1.11,2011-08-23 08:25:00,
2011-08-23 02:35:00,70.9,50.1,30.03,East,90,0.0,4.0,48,0.00,,,0.00,open2300-1.11,2011-08-23 08:35:00,
2011-08-23 02:45:00,70.7,50.0,30.03,East,90,1.3,3.8,48,0.00,,,0.00,open2300-1.11,2011-08-23 08:45:00,
2011-08-23 02:55:00,70.3,49.7,30.03,ESE,112,0.0,4.7,48,0.00,,,0.00,open2300-1.11,2011-08-23 08:55:00,
2011-08-23 03:05:00,70.3,49.7,30.03,ENE,67,0.0,0.0,48,0.00,,,0.00,open2300-1.11,2011-08-23 09:05:00,
2011-08-23 03:15:00,70.2,48.9,30.03,ESE,112,0.0,2.7,47,0.00,,,0.00,open2300-1.11,2011-08-23 09:15:00,
2011-08-23 03:25:00,70.0,48.7,30.03,SE,135,0.0,0.7,47,0.00,,,0.00,open2300-1.11,2011-08-23 09:25:00,
2011-08-23 03:35:00,69.6,48.4,30.03,East,90,0.0,0.0,47,0.00,,,0.00,open2300-1.11,2011-08-23 09:35:00,
2011-08-23 03:45:00,69.4,48.8,30.03,East,90,0.0,0.0,48,0.00,,,0.00,open2300-1.11,2011-08-23 09:45:00,
2011-08-23 03:55:00,69.3,48.7,30.03,ENE,67,2.0,2.0,48,0.00,,,0.00,open2300-1.11,2011-08-23 09:55:00,
2011-08-23 04:05:00,68.9,48.4,30.03,East,90,0.0,2.0,48,0.00,,,0.00,open2300-1.11,2011-08-23 10:05:00,
2011-08-23 04:15:00,68.7,48.2,30.03,East,90,1.1,1.1,48,0.00,,,0.00,open2300-1.11,2011-08-23 10:15:00,
2011-08-23 04:25:00,68.5,48.0,30.03,SE,135,0.0,1.1,48,0.00,,,0.00,open2300-1.11,2011-08-23 10:25:00,
2011-08-23 04:35:00,68.2,47.7,30.03,East,90,0.0,0.0,48,0.00,,,0.00,open2300-1.11,2011-08-23 10:35:00,
2011-08-23 04:45:00,67.8,48.0,30.03,East,90,0.0,0.0,49,0.00,,,0.00,open2300-1.11,2011-08-23 10:45:00,
2011-08-23 04:55:00,67.6,47.8,30.03,East,90,0.0,0.0,49,0.00,,,0.00,open2300-1.11,2011-08-23 10:55:00,
2011-08-23 05:05:00,67.1,47.9,30.04,ENE,67,3.6,3.6,50,0.00,,,0.00,open2300-1.11,2011-08-23 11:05:00,
2011-08-23 05:15:00,66.9,47.8,30.03,East,90,0.0,3.6,50,0.00,,,0.00,open2300-1.11,2011-08-23 11:15:00,
2011-08-23 05:25:00,66.9,47.8,30.04,East,90,0.0,4.0,50,0.00,,,0.00,open2300-1.11,2011-08-23 11:25:00,
2011-08-23 05:35:00,66.7,47.6,30.04,ESE,112,0.0,4.0,50,0.00,,,0.00,open2300-1.11,2011-08-23 11:35:00,
2011-08-23 05:45:00,66.9,47.8,30.04,ENE,67,1.3,1.3,50,0.00,,,0.00,open2300-1.11,2011-08-23 11:45:00,
2011-08-23 05:55:00,66.7,47.6,30.04,ENE,67,0.0,1.8,50,0.00,,,0.00,open2300-1.11,2011-08-23 11:55:00,
2011-08-23 06:05:00,66.6,47.9,30.04,East,90,3.6,3.6,51,0.00,,,0.00,open2300-1.11,2011-08-23 12:05:00,
2011-08-23 06:15:00,66.2,47.6,30.05,East,90,5.6,5.6,51,0.00,,,0.00,open2300-1.11,2011-08-23 12:15:00,
2011-08-23 06:25:00,66.0,47.4,30.06,NE,45,2.2,5.6,51,0.00,,,0.00,open2300-1.11,2011-08-23 12:25:00,
2011-08-23 06:35:00,65.8,47.2,30.06,East,90,0.0,2.2,51,0.00,,,0.00,open2300-1.11,2011-08-23 12:35:00,
2011-08-23 06:45:00,65.8,47.2,30.06,East,90,0.0,0.0,51,0.00,,,0.00,open2300-1.11,2011-08-23 12:45:00,
2011-08-23 06:55:00,66.0,47.4,30.07,East,90,0.0,1.1,51,0.00,,,0.00,open2300-1.11,2011-08-23 12:55:00,
2011-08-23 07:05:00,66.0,46.9,30.07,ESE,112,0.0,0.0,50,0.00,,,0.00,open2300-1.11,2011-08-23 13:05:00,
2011-08-23 07:15:00,66.0,47.4,30.07,ENE,67,0.0,0.0,51,0.00,,,0.00,open2300-1.11,2011-08-23 13:15:00,
2011-08-23 07:25:00,66.0,47.9,30.07,ENE,67,1.8,1.8,52,0.00,,,0.00,open2300-1.11,2011-08-23 13:25:00,
2011-08-23 07:35:00,66.2,48.1,30.08,NE,45,2.5,2.5,52,0.00,,,0.00,open2300-1.11,2011-08-23 13:35:00,
2011-08-23 07:45:00,66.6,48.4,30.08,ENE,67,0.4,3.1,52,0.00,,,0.00,open2300-1.11,2011-08-23 13:45:00,
2011-08-23 07:55:00,66.9,48.7,30.08,ENE,67,0.0,6.7,52,0.00,,,0.00,open2300-1.11,2011-08-23 13:55:00,
2011-08-23 08:05:00,67.6,48.9,30.08,East,90,0.0,2.9,51,0.00,,,0.00,open2300-1.11,2011-08-23 14:05:00,
2011-08-23 08:15:00,68.0,48.7,30.08,SE,135,0.0,0.0,50,0.00,,,0.00,open2300-1.11,2011-08-23 14:15:00,
2011-08-23 08:25:00,68.7,48.8,30.08,ESE,112,0.0,0.0,49,0.00,,,0.00,open2300-1.11,2011-08-23 14:25:00,
2011-08-23 08:35:00,69.6,49.0,30.08,SSE,157,0.0,2.0,48,0.00,,,0.00,open2300-1.11,2011-08-23 14:35:00,
2011-08-23 08:45:00,70.3,49.7,30.08,ENE,67,1.3,1.3,48,0.00,,,0.00,open2300-1.11,2011-08-23 14:45:00,
2011-08-23 08:55:00,71.1,49.7,30.08,East,90,0.0,1.3,47,0.00,,,0.00,open2300-1.11,2011-08-23 14:55:00,
2011-08-23 09:05:00,72.0,49.9,30.08,ESE,112,0.0,0.0,46,0.00,,,0.00,open2300-1.11,2011-08-23 15:05:00,
2011-08-23 09:15:00,73.0,50.6,30.08,NE,45,0.0,3.1,45,0.00,,,0.00,open2300-1.11,2011-08-23 15:15:00,
2011-08-23 09:25:00,73.8,50.4,30.08,SE,135,0.0,0.0,44,0.00,,,0.00,open2300-1.11,2011-08-23 15:25:00,
2011-08-23 09:35:00,74.5,51.0,30.08,ENE,67,0.0,0.0,44,0.00,,,0.00,open2300-1.11,2011-08-23 15:35:00,
2011-08-23 09:45:00,75.6,50.8,30.08,SE,135,0.0,0.0,42,0.00,,,0.00,open2300-1.11,2011-08-23 15:45:00,
2011-08-23 09:55:00,76.3,51.5,30.07,South,180,0.0,0.0,42,0.00,,,0.00,open2300-1.11,2011-08-23 15:55:00,
2011-08-23 10:05:00,77.2,51.7,30.08,SSE,157,0.0,0.0,41,0.00,,,0.00,open2300-1.11,2011-08-23 16:05:00,
2011-08-23 10:15:00,77.9,51.7,30.08,SE,135,0.0,1.1,40,0.00,,,0.00,open2300-1.11,2011-08-23 16:15:00,
2011-08-23 10:25:00,78.6,50.8,30.08,SSE,157,0.0,0.0,38,0.00,,,0.00,open2300-1.11,2011-08-23 16:25:00,
2011-08-23 10:35:00,79.2,51.3,30.07,SSE,157,0.0,0.0,38,0.00,,,0.00,open2300-1.11,2011-08-23 16:35:00,
2011-08-23 10:45:00,79.9,51.2,30.07,NW,315,0.0,0.0,37,0.00,,,0.00,open2300-1.11,2011-08-23 16:45:00,
2011-08-23 10:55:00,80.4,51.7,30.07,WNW,292,0.0,0.0,37,0.00,,,0.00,open2300-1.11,2011-08-23 16:55:00,
2011-08-23 11:05:00,81.3,51.7,30.07,WSW,247,0.0,0.0,36,0.00,,,0.00,open2300-1.11,2011-08-23 17:05:00,
2011-08-23 11:15:00,82.2,51.6,30.07,NNW,337,0.0,1.1,35,0.00,,,0.00,open2300-1.11,2011-08-23 17:15:00,
2011-08-23 11:25:00,82.9,51.5,30.06,WSW,247,0.0,0.0,34,0.00,,,0.00,open2300-1.11,2011-08-23 17:25:00,
2011-08-23 11:35:00,84.0,51.7,30.06,WSW,247,0.0,0.0,33,0.00,,,0.00,open2300-1.11,2011-08-23 17:35:00,
2011-08-23 11:45:00,84.9,51.7,30.06,West,270,0.0,0.0,32,0.00,,,0.00,open2300-1.11,2011-08-23 17:45:00,
2011-08-23 11:55:00,85.6,51.5,30.05,West,270,0.0,0.0,31,0.00,,,0.00,open2300-1.11,2011-08-23 17:55:00,
2011-08-23 12:05:00,86.9,51.8,30.05,West,270,0.0,2.5,30,0.00,,,0.00,open2300-1.11,2011-08-23 18:05:00,
2011-08-23 12:15:00,87.4,51.2,30.04,WSW,247,2.5,2.7,29,0.00,,,0.00,open2300-1.11,2011-08-23 18:15:00,
2011-08-23 12:25:00,88.2,51.8,30.04,West,270,0.0,5.4,29,0.00,,,0.00,open2300-1.11,2011-08-23 18:25:00,
2011-08-23 12:35:00,89.2,51.7,30.04,WNW,292,0.0,3.8,28,0.00,,,0.00,open2300-1.11,2011-08-23 18:35:00,
2011-08-23 12:45:00,89.8,52.1,30.04,SW,225,0.0,1.3,28,0.00,,,0.00,open2300-1.11,2011-08-23 18:45:00,
2011-08-23 12:55:00,90.1,52.5,30.03,WSW,247,1.3,1.3,28,0.00,,,0.00,open2300-1.11,2011-08-23 18:55:00,
2011-08-23 13:05:00,90.5,51.7,30.03,WSW,247,0.0,1.3,27,0.00,,,0.00,open2300-1.11,2011-08-23 19:05:00,
2011-08-23 13:15:00,91.0,52.1,30.03,SW,225,0.0,0.0,27,0.00,,,0.00,open2300-1.11,2011-08-23 19:15:00,
2011-08-23 13:25:00,92.1,51.9,30.02,SW,225,0.0,0.0,26,0.00,,,0.00,open2300-1.11,2011-08-23 19:25:00,
2011-08-23 13:35:00,92.7,52.4,30.01,NW,315,2.2,2.2,26,0.00,,,0.00,open2300-1.11,2011-08-23 19:35:00,
2011-08-23 13:45:00,93.6,52.0,30.01,WSW,247,0.0,3.6,25,0.00,,,0.00,open2300-1.11,2011-08-23 19:45:00,
2011-08-23 13:55:00,93.7,52.2,30.01,West,270,2.5,2.5,25,0.00,,,0.00,open2300-1.11,2011-08-23 19:55:00,
2011-08-23 14:05:00,94.1,52.5,30.00,WSW,247,0.0,2.5,25,0.00,,,0.00,open2300-1.11,2011-08-23 20:05:00,
2011-08-23 14:15:00,94.5,52.8,30.00,WSW,247,1.3,1.3,25,0.00,,,0.00,open2300-1.11,2011-08-23 20:15:00,
2011-08-23 14:25:00,95.2,52.3,29.99,SW,225,0.0,2.5,24,0.00,,,0.00,open2300-1.11,2011-08-23 20:25:00,
2011-08-23 14:35:00,95.9,52.9,29.99,West,270,0.0,0.4,24,0.00,,,0.00,open2300-1.11,2011-08-23 20:35:00,
2011-08-23 14:45:00,96.1,51.9,29.99,West,270,1.1,1.1,23,0.00,,,0.00,open2300-1.11,2011-08-23 20:45:00,
2011-08-23 14:55:00,96.4,52.2,29.99,West,270,2.0,2.0,23,0.00,,,0.00,open2300-1.11,2011-08-23 20:55:00,
2011-08-23 15:05:00,96.6,52.4,29.98,NW,315,0.0,6.0,23,0.00,,,0.00,open2300-1.11,2011-08-23 21:05:00,
2011-08-23 15:15:00,96.1,50.8,29.98,NW,315,2.5,2.5,22,0.00,,,0.00,open2300-1.11,2011-08-23 21:15:00,
2011-08-23 15:25:00,96.1,51.9,29.98,WSW,247,0.0,2.5,23,0.00,,,0.00,open2300-1.11,2011-08-23 21:25:00,
2011-08-23 15:35:00,94.8,50.8,29.98,NNW,337,1.3,4.5,23,0.00,,,0.00,open2300-1.11,2011-08-23 21:35:00,
2011-08-23 15:45:00,93.4,59.8,29.98,ENE,67,5.6,5.6,33,0.02,,,0.02,open2300-1.11,2011-08-23 21:45:00,
2011-08-23 15:55:00,90.1,58.6,29.98,ENE,67,2.7,5.6,35,0.04,,,0.04,open2300-1.11,2011-08-23 21:55:00,
2011-08-23 16:05:00,88.0,61.4,29.98,ENE,67,0.0,2.9,41,0.04,,,0.04,open2300-1.11,2011-08-23 22:05:00,
2011-08-23 16:15:00,86.5,62.0,29.98,SE,135,0.0,0.0,44,0.04,,,0.04,open2300-1.11,2011-08-23 22:15:00,
2011-08-23 16:25:00,86.7,63.4,29.97,SE,135,0.0,0.0,46,0.04,,,0.04,open2300-1.11,2011-08-23 22:25:00,
2011-08-23 16:35:00,88.3,61.7,29.97,SW,225,0.0,0.0,41,0.04,,,0.04,open2300-1.11,2011-08-23 22:35:00,
2011-08-23 16:45:00,89.8,58.3,29.96,West,270,0.0,2.0,35,0.00,,,0.04,open2300-1.11,2011-08-23 22:45:00,
2011-08-23 16:55:00,91.0,57.0,29.96,WSW,247,0.0,2.9,32,0.00,,,0.04,open2300-1.11,2011-08-23 22:55:00,
2011-08-23 17:05:00,91.2,56.4,29.96,NE,45,0.0,0.0,31,0.00,,,0.04,open2300-1.11,2011-08-23 23:05:00,
2011-08-23 17:15:00,91.2,56.4,29.96,NE,45,0.0,0.0,31,0.00,,,0.04,open2300-1.11,2011-08-23 23:15:00,
2011-08-23 17:25:00,91.2,55.6,29.96,West,270,0.0,0.0,30,0.00,,,0.04,open2300-1.11,2011-08-23 23:25:00,
2011-08-23 17:35:00,90.9,53.1,29.96,North,0,4.7,4.7,28,0.00,,,0.04,open2300-1.11,2011-08-23 23:35:00,
2011-08-23 17:45:00,90.1,52.5,29.96,North,0,0.0,4.7,28,0.00,,,0.04,open2300-1.11,2011-08-23 23:45:00,
2011-08-23 17:55:00,89.8,52.1,29.96,NE,45,0.0,0.0,28,0.00,,,0.04,open2300-1.11,2011-08-23 23:55:00,
2011-08-23 18:05:00,89.6,50.9,29.95,NNW,337,0.0,0.0,27,0.00,,,0.04,open2300-1.11,2011-08-24 00:05:00,
2011-08-23 18:15:00,89.4,49.7,29.95,SW,225,0.0,0.0,26,0.00,,,0.04,open2300-1.11,2011-08-24 00:15:00,
2011-08-23 18:25:00,89.4,49.7,29.95,WNW,292,0.0,4.0,26,0.00,,,0.04,open2300-1.11,2011-08-24 00:25:00,
2011-08-23 18:35:00,88.9,51.3,29.95,NE,45,0.0,0.0,28,0.00,,,0.04,open2300-1.11,2011-08-24 00:35:00,
2011-08-23 18:45:00,88.3,50.9,29.95,NNW,337,0.0,0.0,28,0.00,,,0.04,open2300-1.11,2011-08-24 00:45:00,
2011-08-23 18:55:00,87.6,50.2,29.95,NNW,337,0.0,0.0,28,0.00,,,0.04,open2300-1.11,2011-08-24 00:55:00,
2011-08-23 19:05:00,87.4,50.1,29.96,North,0,0.0,0.0,28,0.00,,,0.04,open2300-1.11,2011-08-24 01:05:00,
2011-08-23 19:15:00,86.9,48.6,29.96,NW,315,0.0,0.0,27,0.00,,,0.04,open2300-1.11,2011-08-24 01:15:00,
2011-08-23 19:25:00,86.5,49.3,29.97,NNW,337,0.0,0.0,28,0.00,,,0.04,open2300-1.11,2011-08-24 01:25:00,
2011-08-23 19:35:00,86.2,49.1,29.97,NNW,337,0.0,0.0,28,0.00,,,0.04,open2300-1.11,2011-08-24 01:35:00,
2011-08-23 19:45:00,85.6,49.7,29.97,North,0,0.0,0.0,29,0.00,,,0.04,open2300-1.11,2011-08-24 01:45:00,
2011-08-23 19:55:00,84.7,50.0,29.97,NNW,337,0.0,0.0,30,0.00,,,0.04,open2300-1.11,2011-08-24 01:55:00,
2011-08-23 20:05:00,84.0,50.1,29.97,NNW,337,0.0,0.0,31,0.00,,,0.04,open2300-1.11,2011-08-24 02:05:00,
2011-08-23 20:15:00,83.1,51.7,29.97,NNW,337,0.0,0.0,34,0.00,,,0.04,open2300-1.11,2011-08-24 02:15:00,
2011-08-23 20:25:00,82.0,51.5,29.98,NNW,337,0.0,0.0,35,0.00,,,0.04,open2300-1.11,2011-08-24 02:25:00,
2011-08-23 20:35:00,81.1,51.5,29.99,NNW,337,0.0,0.0,36,0.00,,,0.04,open2300-1.11,2011-08-24 02:35:00,
2011-08-23 20:45:00,80.2,50.7,29.99,NNW,337,0.0,0.0,36,0.00,,,0.04,open2300-1.11,2011-08-24 02:45:00,
2011-08-23 20:55:00,79.2,50.5,29.99,NNW,337,0.0,0.0,37,0.00,,,0.04,open2300-1.11,2011-08-24 02:55:00,
2011-08-23 21:05:00,78.6,50.0,30.00,NNW,337,0.0,0.0,37,0.00,,,0.04,open2300-1.11,2011-08-24 03:05:00,
2011-08-23 21:15:00,77.7,49.2,30.00,NNW,337,0.0,0.0,37,0.00,,,0.04,open2300-1.11,2011-08-24 03:15:00,
2011-08-23 21:25:00,77.0,49.4,30.01,NNW,337,0.0,0.0,38,0.00,,,0.04,open2300-1.11,2011-08-24 03:25:00,
2011-08-23 21:35:00,76.3,48.7,30.01,NNW,337,0.0,0.0,38,0.00,,,0.04,open2300-1.11,2011-08-24 03:35:00,
2011-08-23 21:45:00,75.9,48.4,30.01,NNW,337,0.0,0.0,38,0.00,,,0.04,open2300-1.11,2011-08-24 03:45:00,
2011-08-23 21:55:00,75.7,47.5,30.01,NNW,337,0.0,0.0,37,0.00,,,0.04,open2300-1.11,2011-08-24 03:55:00,
2011-08-23 22:05:00,75.4,47.9,30.02,NNW,337,0.0,0.0,38,0.00,,,0.04,open2300-1.11,2011-08-24 04:05:00,
2011-08-23 22:15:00,75.0,47.6,30.02,NNW,337,0.0,0.0,38,0.00,,,0.04,open2300-1.11,2011-08-24 04:15:00,
2011-08-23 22:25:00,75.0,47.6,30.02,East,90,0.0,0.0,38,0.00,,,0.04,open2300-1.11,2011-08-24 04:25:00,
2011-08-23 22:35:00,74.8,46.7,30.02,ENE,67,0.0,0.0,37,0.00,,,0.04,open2300-1.11,2011-08-24 04:35:00,
2011-08-23 22:45:00,75.0,46.8,30.02,East,90,0.0,1.6,37,0.00,,,0.04,open2300-1.11,2011-08-24 04:45:00,
2011-08-23 22:55:00,74.8,45.9,30.02,SSE,157,0.0,0.0,36,0.00,,,0.04,open2300-1.11,2011-08-24 04:55:00,
2011-08-23 23:05:00,74.3,45.5,30.02,ESE,112,0.0,0.0,36,0.00,,,0.04,open2300-1.11,2011-08-24 05:05:00,
2011-08-23 23:15:00,74.1,44.5,30.02,SE,135,0.0,0.0,35,0.00,,,0.04,open2300-1.11,2011-08-24 05:15:00,
2011-08-23 23:25:00,74.5,46.4,30.02,East,90,3.4,3.4,37,0.00,,,0.04,open2300-1.11,2011-08-24 05:25:00,
2011-08-23 23:35:00,74.8,46.7,30.03,East,90,6.0,6.0,37,0.00,,,0.04,open2300-1.11,2011-08-24 05:35:00,
2011-08-23 23:45:00,75.0,46.8,30.02,ENE,67,1.6,6.0,37,0.00,,,0.04,open2300-1.11,2011-08-24 05:45:00,
2011-08-23 23:55:00,75.0,46.8,30.02,East,90,1.3,1.6,37,0.00,,,0.04,open2300-1.11,2011-08-24 05:55:00,